Location: Hokitika
(42.7170°S, 170.9670°E)
Time: 18:52:59
(UTC+13:00)

Cosmos 1869 Rocket - Pass Details

Date: 24 January 2019
Orbit: 605 x 633 km, 82.5° (Epoch: 22 October)

Event Time Altitude Azimuth Distance (km) Brightness Sun altitude
Rises 22:28:03 0° 181° (S) 2,920 7.7 -12.8°
Reaches altitude 10° 22:30:28 10° 172° (S) 2,002 6.6 -13.2°
Maximum altitude 22:34:34 36° 104° (ESE) 982 4.3 -13.7°
Enters shadow 22:36:41 23° 53° (NE) 1,330 4.6 -14.0°
